Orange, MA

1:29 AM EDT on October 19, 2017 (GMT -0400)
Orange Municipal

Weather History for KORE - August, 2012

Change the Weather History Date:

Saturday, August 4, 2012

  Actual Average Record
Temperature  
Mean Temperature 78 °F -  
Max Temperature 91 °F 79 °F 91 °F (2012)
Min Temperature 66 °F 57 °F 50 °F (1999)
Cooling Degree Days 14    
Growing Degree Days 28 (Base 50)    
Moisture  
Dew Point 68 °F    
Average Humidity 78    
Maximum Humidity 100    
Minimum Humidity 45    
Precipitation  
Precipitation 0.00 in - - ()
Sea Level Pressure  
Sea Level Pressure 30.19 in    
Wind  
Wind Speed 2 mph (SSE)    
Max Wind Speed 16 mph    
Max Gust Speed 24 mph    
Visibility 8 miles    
Events Thunderstorm    
Averages and records for this station are not official NWS values.
T = Trace of Precipitation, MM = Missing Value Source: NWS Daily Summary

Daily Weather History Graph

Daily Weather History Graph

Search for Another Location

Airport or City:

Trip Planner

Search our weather history database for the weather conditions in past years. The results will help you decide how hot, cold, wet, or windy it might be!

Date:

Astronomy

Aug. 04, 2012 Rise Set
Actual Time 5:44 AM EDT 8:04 PM EDT
Civil Twilight 5:13 AM EDT 8:36 PM EDT
Nautical Twilight 4:34 AM EDT 9:15 PM EDT
Astronomical Twilight 3:50 AM EDT 9:58 PM EDT
Moon 9:06 PM EDT (8/4) 8:34 AM EDT (8/4)
Length of Visible Light 15h 23m
Length of Day
14h 20m
Waning Gibbous, 92% of the Moon is Illuminated
Aug 4
Waning Gibbous
Aug 9
Last Quarter
Aug 17
New
Aug 24
First Quarter
Aug 31
Full

Hourly Weather History & Observations

Time (EDT) Temp. Heat Index Dew Point Humidity Pressure Visibility Wind Dir Wind Speed Gust Speed Precip Events Conditions
12:52 AM 70.0 °F - 66.9 °F 90% 30.12 in 10.0 mi Calm Calm - N/A   Clear
1:52 AM 70.0 °F - 66.9 °F 90% 30.12 in 10.0 mi Calm Calm - N/A   Clear
2:52 AM 68.0 °F - 66.9 °F 96% 30.14 in 7.0 mi Calm Calm - N/A   Clear
3:52 AM 68.0 °F - 66.0 °F 93% 30.14 in 6.0 mi Calm Calm - N/A   Clear
4:52 AM 68.0 °F - 66.0 °F 93% 30.15 in 7.0 mi Calm Calm - N/A   Scattered Clouds
5:03 AM 68.0 °F - 66.2 °F 94% 30.16 in 6.0 mi Calm Calm - N/A   Mostly Cloudy
5:38 AM 69.8 °F - 66.2 °F 88% 30.18 in 7.0 mi Calm Calm - N/A   Overcast
5:52 AM 70.0 °F - 68.0 °F 93% 30.18 in 7.0 mi Calm Calm - N/A   Overcast
6:52 AM 70.0 °F - 69.1 °F 97% 30.19 in 2.5 mi Calm Calm - N/A   Overcast
6:59 AM 69.8 °F - 69.8 °F 100% 30.20 in 1.2 mi Calm Calm - N/A   Overcast
7:44 AM 71.6 °F - 69.8 °F 94% 30.21 in 1.2 mi Calm Calm - N/A   Overcast
7:48 AM 71.6 °F - 69.8 °F 94% 30.22 in 2.0 mi Calm Calm - N/A   Overcast
7:52 AM 72.0 °F - 70.0 °F 93% 30.21 in 2.5 mi Calm Calm - N/A   Overcast
8:34 AM 73.4 °F - 71.6 °F 94% 30.22 in 3.0 mi Calm Calm - N/A   Overcast
8:52 AM 75.0 °F - 71.1 °F 87% 30.21 in 6.0 mi Calm Calm - N/A   Overcast
9:11 AM 75.2 °F - 71.6 °F 89% 30.22 in 6.0 mi Calm Calm - N/A   Haze
9:50 AM 78.8 °F - 71.6 °F 78% 30.22 in 7.0 mi Calm Calm - N/A   Scattered Clouds
9:52 AM 78.1 °F - 72.0 °F 81% 30.21 in 7.0 mi SSW 4.6 mph - N/A   Partly Cloudy
10:52 AM 82.0 °F 87.4 °F 73.0 °F 74% 30.20 in 9.0 mi South 4.6 mph - N/A   Clear
11:52 AM 87.1 °F 90.6 °F 68.0 °F 53% 30.20 in 10.0 mi South 9.2 mph - N/A   Clear
12:52 PM 89.1 °F 91.0 °F 64.9 °F 45% 30.19 in 10.0 mi South 12.7 mph - N/A   Clear
1:52 PM 90.0 °F 93.6 °F 68.0 °F 48% 30.19 in 10.0 mi SSE 11.5 mph - N/A   Clear
2:52 PM 91.0 °F 95.6 °F 69.1 °F 48% 30.17 in 10.0 mi South 9.2 mph - N/A   Clear
3:52 PM 88.0 °F 92.9 °F 70.0 °F 55% 30.16 in 10.0 mi South 16.1 mph - N/A Thunderstorm Clear
4:20 PM 87.8 °F 92.6 °F 69.8 °F 55% 30.17 in 10.0 mi South 8.1 mph - N/A   Clear
4:52 PM 86.0 °F 91.5 °F 71.1 °F 61% 30.16 in 10.0 mi Calm Calm - N/A   Clear
5:07 PM 86.0 °F 91.8 °F 71.6 °F 62% 30.18 in 10.0 mi SSW 3.5 mph - N/A Thunderstorm Partly Cloudy
5:52 PM 78.1 °F - 69.1 °F 74% 30.19 in 10.0 mi NW 10.4 mph - N/A Thunderstorm Thunderstorm
6:40 PM 78.8 °F - 66.2 °F 65% 30.20 in 10.0 mi NNE 6.9 mph 19.6 mph N/A   Partly Cloudy
6:52 PM 79.0 °F - 66.9 °F 66% 30.20 in 10.0 mi ENE 8.1 mph - N/A   Partly Cloudy
6:59 PM 78.8 °F - 66.2 °F 65% 30.22 in 10.0 mi NE 8.1 mph - N/A Thunderstorm Partly Cloudy
7:27 PM 78.8 °F - 66.2 °F 65% 30.23 in 10.0 mi East 13.8 mph 24.2 mph N/A Thunderstorm Scattered Clouds
7:48 PM 75.2 °F - 66.2 °F 73% 30.23 in 10.0 mi East 4.6 mph - N/A   Mostly Cloudy
7:52 PM 75.0 °F - 66.0 °F 73% 30.23 in 10.0 mi Calm Calm - N/A   Overcast
8:52 PM 73.0 °F - 63.0 °F 71% 30.21 in 10.0 mi SSW 4.6 mph - N/A   Clear
9:52 PM 71.1 °F - 64.0 °F 78% 30.21 in 10.0 mi Calm Calm - N/A   Clear
10:52 PM 66.9 °F - 63.0 °F 87% 30.21 in 10.0 mi Calm Calm - N/A   Clear
11:52 PM 66.0 °F - 64.0 °F 93% 30.21 in 10.0 mi Calm Calm - N/A   Scattered Clouds